Location: Melbourne
(37.8170°S, 144.9670°E)
Time: 10:11:28
(UTC+10:00)

Transit 2A - All Passes

Search period start: 27 September 2016 00:00
Search period end: 07 October 2016 01:00
Orbit: 593 x 967 km, 66.7° (Epoch: 26 September)

Date Brightness Start Highest point End Pass type
(mag) Time Alt. Az. Time Alt. Az. Time Alt. Az.
27 Sep - 00:14:43 10° WSW 00:18:05 17° WNW 00:21:39 10° NW night (unlit)
27 Sep - 13:09:21 10° NNW 13:13:41 72° ENE 13:18:03 10° SSE daylight
27 Sep - 14:55:42 10° WSW 14:57:22 12° SW 14:59:04 10° SSW daylight
27 Sep - 21:56:25 10° SSW 22:01:15 41° ESE 22:06:32 10° NE visible
27 Sep - 23:39:57 10° SW 23:44:15 26° WNW 23:48:52 10° NNW visible
28 Sep - 12:35:40 10° N 12:39:48 43° ENE 12:43:56 10° SE daylight
28 Sep - 14:20:13 10° W 14:23:09 17° SW 14:26:07 10° S daylight
28 Sep - 21:22:44 10° S 21:27:10 29° SE 21:31:57 10° ENE visible
28 Sep - 23:05:34 10° SW 23:10:23 38° WNW 23:15:38 10° N visible
29 Sep - 12:02:16 10° NNE 12:05:56 27° ENE 12:09:36 10° SE daylight
29 Sep - 13:45:22 10° WNW 13:48:59 25° SW 13:52:41 10° S daylight
29 Sep - 20:49:14 10° S 20:53:02 21° SE 20:57:05 10° E visible
29 Sep - 22:31:22 10° SW 22:36:28 57° WNW 22:42:06 10° NNE visible
30 Sep - 11:29:21 10° NNE 11:32:08 17° ENE 11:34:55 10° ESE daylight
30 Sep - 13:10:50 10° NW 13:14:54 39° WSW 13:19:01 10° SSE daylight
30 Sep - 20:15:59 10° SSE 20:18:50 15° SE 20:21:49 10° E visible
30 Sep - 21:57:19 10° SSW 22:02:31 84° WNW 22:08:17 10° NNE visible
01 Oct - 12:36:34 10° NW 12:40:52 62° WSW 12:45:13 10° SSE daylight
01 Oct - 19:43:49 10° SE 19:44:33 10° SE 19:45:18 10° SE visible
01 Oct - 21:23:22 10° SSW 21:28:32 67° ESE 21:34:15 10° NE visible
01 Oct - 23:08:11 10° WSW 23:11:20 16° WNW 23:14:36 10° NW visible
02 Oct - 13:02:33 10° NNW 13:06:54 82° ENE 13:11:17 10° SSE daylight
02 Oct - 14:49:33 10° WSW 14:50:41 11° SW 14:51:49 10° SSW daylight
02 Oct - 21:49:33 10° SSW 21:54:32 45° ESE 21:59:59 10° NE visible
02 Oct - 23:33:19 10° WSW 23:37:30 24° WNW 23:41:59 10° NNW visible
03 Oct - 12:28:48 10° N 12:32:59 49° ENE 12:37:13 10° SE daylight
03 Oct - 14:13:43 10° W 14:16:26 16° SW 14:19:10 10° S daylight
03 Oct - 21:15:51 10° S 21:20:28 32° SE 21:25:28 10° ENE visible
03 Oct - 22:58:51 10° SW 23:03:38 35° WNW 23:08:50 10° N visible
04 Oct - 11:55:19 10° N 11:59:07 30° ENE 12:02:56 10° SE daylight
04 Oct - 13:38:45 10° WNW 13:42:15 23° SW 13:45:48 10° S daylight
04 Oct - 20:42:17 10° S 20:46:21 23° SE 20:50:42 10° ENE visible
04 Oct - 22:24:36 10° SW 22:29:44 52° WNW 22:35:21 10° N visible
05 Oct - 11:22:15 10° NNE 11:25:18 19° ENE 11:28:22 10° ESE daylight
05 Oct - 13:04:10 10° WNW 13:08:07 35° SW 13:12:11 10° S daylight
05 Oct - 20:08:55 10° S 20:12:09 16° SE 20:15:33 10° E visible
05 Oct - 21:50:31 10° SSW 21:55:47 77° WNW 22:01:36 10° NNE visible
06 Oct - 10:50:06 10° NE 10:51:32 11° ENE 10:52:58 10° E daylight
06 Oct - 12:29:50 10° NW 12:34:05 55° WSW 12:38:25 10° SSE daylight
06 Oct - 19:36:08 10° SSE 19:37:54 12° SE 19:39:43 10° ESE daylight
06 Oct - 21:16:34 10° SSW 21:21:49 74° ESE 21:27:37 10° NNE visible
06 Oct - 23:01:43 10° WSW 23:04:33 14° WNW 23:07:29 10° NW visible
